This is the latest recevied weather packets stored in our database for station/object KC1TWD. If no packets are shown the sender has not sent any weather packets the latest 10 day(s).
| Time | Temp. | Humidity | Pressure | Rain* | Wind** | Luminosity | Snow |
|---|---|---|---|---|---|---|---|
| 1777761074 | 8.33° C | 99% | 1010.2 hPa | 0 mm | - | - | - |
| 1777760771 | 8.33° C | 99% | 1010.1 hPa | 0 mm | - | - | - |
| 1777760467 | 8.89° C | 99% | 1010.1 hPa | 0 mm | - | - | - |
| 1777760162 | 8.33° C | 98% | 1010.1 hPa | 0 mm | - | - | - |
| 1777759860 | 8.33° C | 98% | 1010.1 hPa | 0 mm | - | - | - |
| 1777759555 | 8.33° C | 98% | 1010.2 hPa | 0 mm | - | - | - |
| 1777759252 | 8.89° C | 99% | 1010.2 hPa | 1.78 mm | - | - | - |
| 1777758950 | 8.89° C | 99% | 1010 hPa | 3.05 mm | - | - | - |
| 1777758646 | 8.89° C | 99% | 1010.2 hPa | 3.05 mm | - | - | - |
| 1777758344 | 8.89° C | 99% | 1010.7 hPa | 4.83 mm | - | - | - |
| 1777758041 | 8.89° C | 99% | 1010.3 hPa | 1.78 mm | - | - | - |
| 1777757737 | 8.89° C | 99% | 1010.3 hPa | 0 mm | - | - | - |
| 1777757435 | 8.89° C | 98% | 1010.2 hPa | 0 mm | - | - | - |
| 1777757134 | 8.89° C | 98% | 1010 hPa | 1.27 mm | - | - | - |
| 1777756831 | 8.89° C | 98% | 1010.2 hPa | 0 mm | - | - | - |
| 1777756527 | 8.89° C | 98% | 1010.1 hPa | 0 mm | - | - | - |
| 1777756224 | 8.89° C | 98% | 1010.1 hPa | 0 mm | - | - | - |
| 1777755921 | 8.89° C | 98% | 1010.1 hPa | 1.78 mm | - | - | - |
| 1777755618 | 8.89° C | 98% | 1010.3 hPa | 1.78 mm | - | - | - |
| 1777755314 | 8.89° C | 98% | 1010.2 hPa | 1.27 mm | - | - | - |
| 1777755012 | 9.44° C | 98% | 1010.1 hPa | 1.27 mm | - | - | - |
| 1777754709 | 9.44° C | 98% | 1010.1 hPa | 0 mm | - | - | - |
| 1777754407 | 9.44° C | 98% | 1010.2 hPa | 0 mm | - | - | - |
| 1777754103 | 9.44° C | 97% | 1010.1 hPa | 1.78 mm | - | - | - |
| 1777753800 | 9.44° C | 97% | 1010.1 hPa | 1.78 mm | - | - | - |
* Rain latest hour (hover to see other rain measurements)
** Current wind speed in m/s (hover to see current wind gust speed)